Location: M.A.R.S.Observatory
(35.4031°N, 81.5481°W)
Time: 07:28:21
(UTC-05:00)

SL-8 R/B - Visible Passes

Search period start: 07 December 2016 00:00
Search period end: 17 December 2016 00:00
Orbit: 657 x 668 km, 48.4° (Epoch: 07 December)

Date Brightness Start Highest point End Pass type
(mag) Time Alt. Az. Time Alt. Az. Time Alt. Az.
07 Dec 4.6 17:42:55 10° W 17:47:26 41° NNW 17:51:57 10° NE visible
07 Dec 5.7 19:27:40 10° NW 19:30:27 18° NNW 19:30:27 18° NNW visible
08 Dec 5.3 18:15:06 10° WNW 18:18:58 24° NNW 18:22:14 13° NNE visible
08 Dec 6.4 19:59:44 10° NW 20:00:13 12° NNW 20:00:13 12° NNW visible
09 Dec 5.5 18:47:29 10° NW 18:50:44 18° N 18:52:00 16° NNE visible
10 Dec 5.3 17:34:55 10° WNW 17:38:44 23° NNW 17:42:34 10° NE visible
10 Dec 5.8 19:19:31 10° NW 19:21:46 16° N 19:21:46 16° N visible
11 Dec 5.6 18:07:18 10° NW 18:10:31 18° N 18:13:33 11° NNE visible
11 Dec 6.2 19:50:52 10° NW 19:51:32 13° NNW 19:51:32 13° NNW visible
12 Dec 5.5 18:39:17 10° NW 18:42:24 17° N 18:43:21 16° NNE visible
13 Dec 5.5 19:10:35 10° NW 19:13:11 20° N 19:13:11 20° N visible
14 Dec 5.5 17:59:02 10° NW 18:02:10 17° N 18:05:05 11° NE visible
14 Dec 5.8 19:41:32 10° NW 19:43:05 18° NNW 19:43:05 18° NNW visible
15 Dec 5.1 18:30:18 10° NW 18:33:59 21° NNE 18:35:03 20° NE visible
15 Dec 6.3 20:12:26 10° NW 20:13:04 14° NW 20:13:04 14° NW visible
16 Dec 4.6 19:01:13 10° NW 19:05:08 33° NNE 19:05:08 33° NNE visible
